SCP
0 0 0 0 0 0 0 0 0 0 0 0 0 0 0 0 0 0 0 0 0 0 0 0 1 1 1 1 1 1 1 1 1 1 1 1 1 1 1 0 0 0 0 0 0 0 0 0 0
0 0 0 0 0 0 0 0 0 0 0 0 0 0 0 0 0 0 0 0 0 0 0 0 1 1 1 1 1 1 1 1 1 1 1 1 1 1 1 0 0 0 0 0 0 0 0 0 0
0 0 0 0 0 0 0 0 0 0 0 0 0 0 0 0 0 0 0 0 0 0 0 1 1 1 1 1 1 1 1 1 1 1 1 1 1 1 1 0 0 0 0 0 0 0 0 0 0
0 0 0 0 0 0 0 0 0 0 0 0 0 0 0 0 0 0 0 0 0 1 1 1 1 1 1 1 1 1 1 1 1 1 1 1 1 1 0 0 0 0 0 0 0 0 0 0 0
0 0 0 0 0 0 0 0 0 0 0 0 0 0 0 0 0 0 0 0 1 1 1 1 1 1 1 1 1 1 1 1 1 1 1 1 1 1 0 0 0 0 0 0 0 0 0 0 0
0 0 0 0 0 0 0 0 0 0 0 0 0 0 0 0 0 0 0 0 1 1 1 1 1 1 1 1 1 1 1 1 1 1 1 1 0 0 0 0 0 0 0 0 0 0 0 0 0
0 0 0 0 0 0 0 0 0 0 0 0 1 1 0 0 1 1 1 1 1 1 1 1 1 1 1 1 1 1 1 1 1 1 1 0 0 0 0 0 0 0 0 0 0 0 0 0 0
0 0 0 0 0 0 0 0 0 0 0 1 1 1 0 1 1 1 1 1 1 1 1 1 1 1 1 1 1 1 1 1 1 1 0 0 0 0 0 0 0 0 0 0 0 0 0 0 0
0 0 0 0 0 0 0 0 0 0 1 1 1 0 1 1 1 1 1 1 1 1 1 1 1 1 1 1 1 1 1 1 1 1 1 0 0 0 0 0 0 0 0 0 0 0 0 0 0
0 0 0 0 0 0 0 0 0 0 0 0 0 1 1 1 1 1 1 1 1 1 0 1 1 1 1 1 1 1 1 1 1 1 0 0 0 0 0 0 0 0 0 0 0 0 0 0 0
0 0 0 0 0 0 0 0 0 0 0 0 0 1 1 1 1 1 1 1 0 0 0 0 0 0 0 0 0 1 1 1 1 0 0 0 0 0 0 0 0 0 0 0 0 0 0 0 0
0 0 0 0 0 0 0 0 0 0 0 0 1 1 1 1 1 1 1 0 0 0 0 0 0 0 0 0 0 0 0 1 1 0 0 0 0 0 0 0 0 0 0 0 0 0 0 0 0
0 0 0 0 0 0 0 0 0 0 0 0 1 1 1 1 1 1 0 0 0 0 0 0 0 0 0 0 0 0 0 0 0 0 0 0 0 0 0 0 0 0 0 0 0 0 0 0 0
0 0 0 0 0 0 0 0 0 0 0 1 1 1 1 1 1 1 0 0 0 0 0 0 0 0 0 0 0 0 0 0 0 0 0 0 0 0 0 0 0 0 0 0 0 0 0 0 0
0 0 0 0 0 0 0 0 0 0 1 1 1 1 1 1 1 1 0 0 0 0 0 0 0 0 0 0 0 0 0 0 0 0 0 0 0 0 0 0 0 0 0 0 0 0 0 0 0
0 0 0 0 0 0 0 0 0 0 1 1 1 1 1 1 1 1 0 0 0 0 0 0 0 0 0 0 0 0 0 0 0 0 0 0 0 0 0 0 0 0 0 0 0 0 0 0 0
0 0 0 0 0 0 0 0 0 0 1 1 1 1 1 1 0 0 0 0 0 0 0 0 0 0 0 0 0 0 0 0 0 0 0 0 0 0 0 0 0 0 0 0 0 0 0 0 0
0 0 0 0 0 0 0 0 0 0 0 1 1 1 1 0 0 0 0 0 0 0 0 0 0 0 0 0 0 0 0 0 0 0 0 0 0 0 0 0 0 0 0 0 0 0 0 0 0
0 0 0 0 0 0 0 0 0 0 0 0 0 0 0 0 0 0 0 0 0 0 0 0 0 0 0 0 0 0 0 0 0 0 0 0 0 0 0 0 0 0 0 0 0 0 0 0 0
0 0 0 0 0 0 0 0 0 0 0 0 0 0 0 0 0 0 0 0 0 0 0 0 0 0 0 0 0 0 0 0 0 0 0 0 0 0 0 0 0 0 0 0 0 0 0 0 0
0 0 0 0 0 0 0 0 0 0 0 0 0 0 0 0 0 0 0 0 0 0 0 0 0 0 0 0 0 0 0 0 0 0 0 0 0 0 0 0 0 0 0 0 0 0 0 0 0
0 0 0 0 0 0 0 0 0 0 0 0 0 0 0 0 0 0 1 1 1 1 0 0 0 0 0 0 0 0 0 0 0 0 0 0 0 0 0 0 0 0 0 0 0 0 0 0 0
0 0 0 0 0 0 0 0 0 0 0 0 0 0 0 0 0 0 1 1 1 1 1 0 0 0 0 0 0 0 0 0 0 0 0 0 0 0 0 0 0 0 0 0 0 0 0 0 0
0 0 0 0 0 0 0 0 0 0 0 0 0 0 0 0 0 0 1 1 1 1 0 0 0 0 0 0 0 0 0 0 0 0 0 0 0 0 0 0 0 0 0 0 0 0 0 0 0
0 0 0 0 0 0 0 0 0 0 0 0 0 0 0 0 0 0 0 1 1 0 0 0 0 0 0 0 0 0 0 0 0 0 0 0 0 0 0 0 0 0 0 0 0 0 0 0 0
0 0 0 0 0 0 0 0 0 0 0 0 0 0 0 0 0 0 0 0 1 0 0 0 0 0 0 0 0 0 0 0 0 0 0 0 0 0 0 0 0 0 0 0 0 0 0 0 0
0 0 0 0 0 0 0 0 0 0 0 0 0 0 0 0 0 0 0 0 0 0 0 0 0 0 0 0 0 0 0 0 0 0 0 0 0 0 0 0 0 0 0 0 0 0 0 0 0
0 0 0 0 0 0 0 0 0 0 0 0 0 0 0 0 0 0 0 0 0 0 0 0 0 0 0 0 0 0 0 0 0 0 0 0 0 0 0 0 0 0 0 0 0 0 0 0 0
0 0 0 0 0 0 0 0 0 0 0 0 0 0 0 0 0 0 0 0 0 0 0 0 0 0 0 0 0 0 0 0 0 0 0 0 0 0 0 0 0 0 0 0 0 0 0 0 0
0 0 0 0 0 0 0 0 0 0 0 0 0 0 0 0 0 0 0 0 0 0 0 0 0 0 0 0 0 0 0 0 0 0 0 0 0 0 0 0 0 0 0 0 0 0 0 0 0
Wind_Speed
1 2 2 3 5 5 2 4 2 3 1 1 4 4 5 4 3 3 2 9 13 13 11 14 16 16 16 15 15 14 14 14 14 14 13 13 13 12 12 11 10 10 9 9 8 8 7 7 7
1 2 3 5 5 2 4 3 2 2 1 1 4 5 4 2 3 5 4 8 14 13 10 11 16 15 15 15 14 14 14 13 13 13 13 12 12 11 11 10 10 9 8 8 7 7 7 6 6
1 2 4 5 4 3 3 2 1 2 1 2 3 4 3 2 3 3 5 12 12 10 9 12 17 15 15 15 14 14 13 13 13 12 12 11 11 10 10 9 9 8 8 7 7 6 6 6 5
2 4 5 5 1 4 4 3 1 1 3 5 4 4 3 3 3 5 11 13 12 9 8 11 16 15 15 14 14 13 13 12 12 12 11 10 10 9 9 8 8 7 7 6 6 5 5 5 4
4 5 5 3 3 4 4 4 1 1 1 2 3 3 2 4 7 12 12 12 12 9 7 9 15 14 14 14 13 13 12 12 11 10 10 9 9 8 8 7 7 6 6 5 5 4 4 4 3
5 5 5 0 4 4 4 2 0 1 2 2 3 3 2 3 8 10 10 9 9 9 7 7 14 14 13 13 13 12 11 11 10 9 9 9 8 7 7 7 7 6 6 5 5 4 4 4 4
5 5 3 2 2 4 2 0 2 2 2 2 3 4 2 4 6 9 9 8 7 7 6 5 6 9 12 12 12 11 10 9 9 9 8 8 8 7 7 7 7 7 6 6 6 6 6 5 5
5 5 2 1 2 3 2 1 0 2 2 2 3 5 4 6 9 9 9 8 7 6 5 4 4 4 5 6 10 10 9 9 9 8 8 8 7 7 7 6 6 7 7 7 7 7 7 7 6
4 5 1 4 4 3 1 0 1 1 3 2 1 2 5 13 13 11 9 7 6 6 4 4 4 3 3 4 6 7 8 8 7 6 8 6 3 2 3 5 7 8 8 7 7 7 7 7 7
4 3 4 4 4 3 1 0 1 2 2 2 2 5 10 13 12 12 10 9 9 8 6 4 4 4 4 4 3 2 3 3 3 2 2 1 1 2 3 4 7 7 7 7 6 6 6 5 2
3 4 4 3 3 2 2 1 1 4 1 4 6 10 12 12 10 9 8 8 8 7 6 6 5 4 4 2 2 2 1 2 2 2 2 1 1 1 2 1 2 3 4 2 3 3 2 2 2
2 3 3 2 1 2 2 2 1 1 2 2 6 10 12 12 10 9 8 6 5 5 6 5 5 4 4 3 2 2 2 2 2 2 2 2 1 1 1 1 1 1 1 1 1 1 2 3 2
1 3 1 1 2 2 4 2 2 1 1 5 8 9 10 10 8 6 5 5 5 5 5 5 6 5 4 3 2 3 2 2 2 1 1 2 2 2 1 1 1 1 1 1 1 2 2 2 2
1 0 2 3 1 1 4 2 2 2 3 6 7 7 7 8 7 6 6 5 5 5 4 4 5 5 4 4 3 2 2 2 2 2 2 2 2 1 1 1 1 1 1 1 1 1 1 1 2
1 2 5 4 2 0 3 3 1 2 5 6 6 6 5 5 5 5 5 5 4 4 3 3 4 4 4 5 4 2 2 2 2 1 1 2 2 2 1 1 1 1 1 1 1 1 1 1 2
3 4 3 5 2 1 4 3 3 3 6 5 5 5 4 3 3 3 3 3 3 3 2 2 2 3 4 3 3 1 1 1 1 1 1 1 1 2 2 1 1 0 0 0 1 1 1 1 2
5 2 1 4 3 1 2 3 2 2 5 4 4 4 4 3 2 2 3 3 3 3 3 2 2 2 2 2 2 2 1 1 1 1 1 1 1 1 2 1 1 1 0 1 1 1 1 1 2
1 0 1 3 3 2 1 2 2 1 4 4 3 4 4 3 3 2 2 2 3 2 2 2 2 2 2 1 1 1 1 1 1 0 1 1 1 1 1 1 0 1 0 1 1 1 1 1 2
2 2 2 4 2 2 1 1 3 1 3 3 3 4 4 4 2 2 3 3 3 2 2 2 2 1 1 1 1 1 1 0 0 0 0 1 1 1 2 1 1 0 1 0 1 1 1 1 1
3 2 1 3 1 2 1 1 2 2 3 4 5 6 5 4 3 3 3 3 3 2 2 1 1 1 1 1 1 1 1 1 1 0 0 1 1 1 1 1 1 1 1 0 0 0 0 0 0
1 4 3 3 1 3 2 3 2 1 1 2 2 3 3 5 5 3 3 3 3 2 2 2 1 1 1 1 1 2 2 1 1 1 1 1 0 0 1 1 1 1 1 1 1 0 0 1 1
3 3 4 3 2 2 1 2 5 2 3 3 3 3 4 4 4 4 4 3 3 3 2 2 1 2 2 2 2 3 2 1 1 0 0 1 1 1 1 0 1 1 1 1 1 1 1 1 1
2 2 3 2 2 1 2 1 7 1 3 5 5 4 3 3 5 5 4 4 3 2 2 2 2 2 2 2 2 2 1 0 1 1 1 1 1 1 1 0 0 1 1 1 1 0 1 1 1
3 5 5 5 4 1 2 2 6 4 5 5 4 4 3 3 4 3 3 3 2 2 2 2 2 2 2 2 2 2 2 1 1 1 1 1 1 1 1 1 1 0 0 0 1 1 1 1 1
4 5 5 5 4 4 2 2 7 6 4 5 5 3 3 3 4 4 4 3 2 2 2 2 2 2 2 2 2 2 1 1 1 0 0 1 1 1 2 1 1 1 1 1 0 1 1 1 1
0 5 5 4 4 5 3 4 7 4 2 1 2 2 2 3 3 3 4 4 3 2 2 2 2 2 1 1 1 1 1 1 0 0 1 1 1 2 2 2 2 2 1 1 0 0 1 1 2
2 1 3 5 1 2 5 5 7 2 2 1 1 2 2 3 3 3 3 3 3 2 2 2 2 1 1 1 1 1 1 0 0 1 1 1 2 2 2 2 2 1 1 1 0 1 1 1 1
2 5 4 4 2 3 5 4 5 5 4 3 2 3 3 3 3 3 3 3 3 2 2 2 2 1 1 1 1 1 0 1 1 1 1 2 2 1 2 2 1 1 1 1 0 1 1 1 1
2 2 4 3 3 3 3 7 5 5 4 4 5 4 4 4 4 4 3 3 3 2 2 2 2 1 1 0 0 1 1 1 1 1 2 2 2 2 2 1 1 1 1 1 0 1 1 1 2
2 2 5 3 2 3 3 9 4 3 3 3 3 3 3 3 3 3 2 3 2 2 2 1 1 1 0 0 0 1 1 1 2 2 2 2 2 2 2 1 1 1 1 1 1 2 1 1 2
Wind_Direction
178 107 101 73 58 49 288 269 264 313 349 23 120 120 131 136 165 186 111 134 134 142 151 153 152 149 144 139 135 133 131 129 128 128 130 132 134 136 138 140 142 144 145 143 141 138 135 132 131
126 123 70 64 84 59 284 266 282 274 223 90 82 79 81 72 63 106 125 138 138 142 145 152 154 151 147 143 140 138 137 135 135 134 136 137 138 139 141 144 146 146 146 147 147 145 140 138 139
148 93 87 77 105 176 249 266 252 334 22 63 70 62 78 91 122 140 147 139 134 139 143 156 155 154 151 147 145 144 143 142 143 142 143 143 144 145 146 148 151 151 151 154 154 152 147 145 148
101 56 57 72 190 229 234 257 263 328 23 38 84 77 61 40 134 138 137 138 135 136 143 157 156 156 155 153 151 150 150 150 150 150 149 150 152 153 154 157 160 161 162 164 164 159 157 157 159
63 79 65 37 275 260 250 266 239 178 77 61 94 99 39 19 100 123 134 140 140 140 145 156 157 158 158 157 156 157 157 157 157 158 158 159 160 162 165 169 173 175 176 177 179 177 178 183 185
59 70 85 264 277 281 276 268 164 102 97 93 101 103 51 96 117 129 133 136 140 142 143 151 160 161 162 162 161 162 164 164 165 166 168 170 172 175 179 182 187 192 194 195 196 202 207 210 215
104 99 138 192 274 296 281 319 136 151 138 141 130 113 110 128 128 128 125 125 129 136 139 148 159 163 165 166 168 169 169 171 173 175 179 182 186 190 197 200 203 208 210 214 216 220 224 225 227
124 104 109 211 219 265 289 353 126 138 140 108 122 141 169 158 133 120 118 122 129 135 141 146 150 150 155 165 174 175 177 181 185 188 192 196 201 205 211 212 218 223 226 231 235 235 235 237 237
90 79 174 213 201 243 275 19 354 29 94 73 93 142 147 136 132 127 127 131 143 151 154 153 150 145 147 162 180 180 183 189 195 200 205 205 207 223 231 231 231 235 237 241 247 247 245 245 247
90 127 226 218 202 207 289 99 203 91 69 53 74 95 124 135 142 146 153 159 166 172 173 166 161 157 158 176 172 168 177 182 189 189 207 194 198 230 242 259 251 248 245 247 253 257 255 253 251
144 193 241 254 216 178 137 78 55 128 176 199 165 141 139 141 149 155 162 168 176 175 174 176 175 171 172 180 166 164 169 168 180 189 196 195 206 237 255 268 276 274 265 263 268 267 253 249 238
164 248 232 268 152 126 145 139 81 103 232 121 135 140 146 151 160 166 169 170 168 170 181 181 178 178 186 184 183 175 179 185 191 196 188 187 207 243 254 247 259 264 264 260 269 266 264 263 251
200 282 300 182 97 104 100 101 104 5 27 88 113 131 153 158 163 164 159 159 162 177 187 189 184 187 187 186 200 192 195 196 194 188 191 187 199 223 245 264 260 261 254 246 254 257 270 274 274
213 257 341 349 64 78 103 67 76 275 96 100 120 143 156 160 160 156 159 164 176 190 196 187 188 188 185 196 200 199 196 202 192 183 197 191 193 199 209 236 253 269 274 272 271 274 258 266 272
26 34 3 358 22 88 99 22 256 215 118 122 135 147 152 156 157 171 175 170 179 193 192 184 186 186 187 201 202 194 184 181 188 181 190 185 181 185 189 202 237 264 274 280 286 288 280 282 278
43 46 6 320 3 12 118 250 268 156 134 140 140 140 150 150 159 163 154 149 163 164 162 183 185 177 188 191 188 179 156 167 179 163 165 182 182 169 164 179 224 272 308 260 244 265 273 282 286
32 45 322 314 343 63 137 228 274 147 146 156 155 149 158 147 138 154 150 155 159 157 151 157 152 166 182 170 154 138 143 160 156 141 149 165 171 163 161 173 215 153 249 264 260 240 231 271 286
265 323 314 293 305 60 114 248 277 169 159 175 168 164 163 166 198 169 135 137 138 137 128 128 124 115 127 122 113 110 101 89 94 132 183 168 171 170 153 152 206 140 178 279 290 267 261 262 282
171 158 249 270 270 100 139 258 274 190 164 180 190 190 185 194 188 147 142 137 124 118 109 101 90 74 102 122 147 145 151 126 98 227 225 171 179 177 160 164 172 143 157 240 283 263 270 299 317
147 138 265 301 358 111 117 289 289 186 201 201 202 206 200 190 172 160 155 150 145 141 135 120 118 115 140 158 143 137 133 148 175 221 330 236 210 206 173 162 171 157 153 59 346 317 243 320 36
188 184 207 213 6 51 83 336 310 282 246 225 212 216 205 195 196 179 174 185 166 152 161 162 184 160 128 107 103 86 68 56 46 29 359 334 303 186 153 179 176 159 160 221 249 240 195 251 278
258 227 178 163 104 297 101 275 278 265 286 258 249 231 224 208 193 185 183 188 181 178 153 131 119 91 89 109 134 141 145 174 228 227 263 342 18 44 80 143 168 186 206 231 245 189 200 195 226
219 86 118 131 135 29 10 176 279 291 264 258 249 237 222 202 184 184 184 181 175 153 133 125 104 78 84 107 122 121 98 54 23 43 38 2 1 8 18 9 198 213 225 233 247 202 190 201 205
116 70 56 55 68 352 260 189 271 247 233 245 242 231 213 187 172 166 154 148 145 123 115 107 101 81 75 87 96 109 115 102 76 43 28 358 339 333 349 3 18 267 227 245 266 261 235 225 225
65 75 25 360 6 256 268 214 251 256 244 227 232 225 199 177 159 153 149 151 138 117 103 96 104 87 85 93 94 101 126 128 133 169 61 334 314 305 305 308 287 271 256 253 250 255 276 250 239
133 132 156 210 230 275 315 242 254 261 282 263 207 180 169 168 158 155 156 154 149 130 116 107 105 107 120 129 112 82 84 113 183 218 221 254 268 275 283 284 275 278 280 287 262 253 262 251 253
130 140 163 141 190 283 281 282 296 277 321 344 123 158 197 183 167 161 151 156 153 146 157 143 125 107 96 104 104 92 85 64 319 311 279 263 264 273 287 285 284 288 289 295 293 281 279 287 277
107 143 94 108 159 271 288 274 255 260 260 265 250 222 217 189 171 168 167 170 161 156 152 117 129 152 169 130 128 112 62 332 307 316 315 300 298 302 300 295 298 321 330 325 318 286 289 307 293
21 64 94 106 155 175 263 270 235 239 240 232 240 234 215 193 186 184 178 169 150 131 129 134 152 145 127 83 74 58 17 348 339 323 313 315 316 316 297 288 309 313 318 317 300 282 288 296 299
208 177 144 144 242 194 211 267 286 274 252 219 228 226 208 195 179 169 160 148 144 147 154 158 141 126 184 190 86 26 1 349 343 324 316 322 321 320 313 310 309 298 303 289 264 280 290 283 293